Вернуться в каталог

STARLINK-35263

АктивенСвязьSSO
NORAD 65597·PAYLOAD·🇺🇸 United States

Запущен Sep 13, 2025 с Cape Canaveral Space Force Station

Loading…

Ближайшие Пролёты (ближайшие 24 часа)

TLE

СвежийSource: CelesTrak SupGP

Эпоха: Sep 14, 2026, 21:28 UTC

1 65597C 25207F   26257.89493056 -.00024557  00000+0 -14932-2 0  2576
2 65597  97.2848 320.5718 0001927  93.0623 260.0076 15.10555456    19

Отслеживайте STARLINK-35263 в реальном времени с AllMySat

Download on the App Store